Location: *
(47.6569°N, 7.4256°E)
Time: 01:50:21
(UTC+00:00)

Cosmos 2369 Rocket - Pass Details

Date: 14 December 2019
Orbit: 828 x 853 km, 71.0° (Epoch: 25 January)

Event Time Altitude Azimuth Distance (km) Brightness Sun altitude
Rises 17:59:40 0° 332° (NNW) 3,393 5.6 -22.6°
Reaches altitude 10° 18:02:06 10° 331° (NNW) 2,459 4.8 -23.0°
Maximum altitude 18:07:45 84° 244° (WSW) 851 2.1 -24.0°
Enters shadow 18:12:49 13° 157° (SSE) 2,240 4.2 -24.8°
